Terminal Aerodrome Forecast
Issued by NWS Binghamton, NY

Home | Current Version | Previous Version | Text Only | Print | Product List | Glossary On
Versions: 1 2 3 4 5 6 7 8 9 10 11 12 13 14 15 16 17 18
000
FTUS41 KBGM 281100
TAFSYR
TAF
KSYR 281120Z 2812/2912 02005KT P6SM -SHRA SCT012 OVC025
      TEMPO 2812/2816 3SM -SHRA BR OVC012
     FM281600 35012KT 5SM -SHRA BR SCT008 OVC012
     FM290000 32008KT P6SM -SHRA OVC025
     FM290300 29008KT P6SM OVC040=

USA.gov is the U.S. government's official web portal to all federal, state and local government web resources and services.